#timestamp,LO_Frequency,Hit,StdDev 
1621364415.4,286046999.2,N
1621364435.2,286046999.2,N
1621364455.0,286046997.7,N
1621364455.9,286046997.7,N
1621364475.8,286046998.3,N
1621364495.6,286046998.3,N
1621364515.4,286046999.4,N
1621364535.3,286046998.5,N
1621364555.1,286047001.0,N
1621364575.9,286046999.3,N
1621364595.7,286046999.0,N
1621364615.5,286046999.2,N
1621364635.4,286046998.7,N
1621364655.2,286046998.6,N
1621364675.0,286047000.5,N
1621364675.9,286047000.5,N
1621364695.8,286047000.9,N
1621364715.6,286047002.8,N
1621364735.5,286047001.3,N
1621364755.3,286047001.3,N
1621364775.1,286047001.7,N
1621364795.9,286047002.4,N
1621364815.7,286046998.6,N
1621364835.5,286046998.5,N
1621364855.4,286046998.7,N
1621364875.2,286046997.9,N
1621364895.1,286046999.5,N
1621364896.0,286046999.5,N
1621364915.8,286046996.8,N
1621364935.6,286046999.4,N
1621364955.5,286046999.2,N
1621364975.3,286046998.8,N
1621364995.1,286046995.7,Y
1621365015.9,286046997.5,P
1621365035.7,286046997.0,P
1621365055.6,286046999.0,N
1621365075.4,286046995.3,Y
1621365095.2,286046999.0,P
1621365115.1,286046999.8,N
1621365116.0,286046999.8,N
1621365135.8,286047000.1,N
1621365155.7,286047000.3,N
1621365175.5,286047002.0,N
1621365195.3,286047002.5,N
1621365215.2,286047002.2,N
1621365235.0,286047002.8,N
1621365235.9,286047002.8,N
1621365255.7,286046999.9,N
1621365275.6,286046998.5,N
1621365295.4,286046998.6,N
1621365315.3,286047000.2,N
1621365335.1,286047002.7,N
1621365336.0,286047002.7,N
1621365355.8,286047000.3,N
1621365375.7,286046998.2,N
1621365395.5,286047000.5,N
1621365415.3,286047001.5,N
1621365435.2,286047002.1,N
1621365455.0,286047004.4,N
1621365455.9,286047004.4,N
1621365475.8,286047004.1,N
1621365495.6,286047003.3,N
1621365515.5,286047006.0,Y
1621365535.3,286047004.0,P
1621365555.1,286047004.1,N
1621365575.9,286047003.7,N
1621365595.7,286047004.2,Y
1621365615.6,286047000.7,P
1621365635.4,286046998.9,N
1621365655.2,286047000.4,N
1621365675.1,286046999.4,N
1621365676.0,286046999.4,N
1621365695.8,286046996.8,N
1621365715.6,286046997.4,N
1621365735.5,286046999.4,N
1621365755.3,286046998.1,N
1621365775.2,286046999.9,N
1621365795.9,286047000.8,N
1621365815.7,286047001.0,N
1621365835.6,286047000.8,N
1621365855.4,286046998.7,N
1621365875.2,286046998.9,N
1621365895.1,286046997.0,N
1621365896.0,286046997.0,N
1621365915.8,286046996.6,N
1621365935.7,286046998.9,N
1621365955.5,286046999.1,N
1621365975.3,286046999.1,N
1621365995.2,286046999.7,N
1621366015.0,286047000.6,N
1621366015.9,286047000.6,N
1621366035.7,286046999.0,N
1621366055.6,286046996.5,N
1621366075.4,286046996.7,N
1621366095.3,286046998.0,N
1621366115.1,286046996.9,N
1621366116.0,286046996.9,N
1621366135.8,286046995.4,Y
1621366155.7,286046998.8,P
1621366175.5,286047000.2,P
1621366195.3,286047002.0,N
1621366215.2,286046999.9,N
1621366235.0,286046998.8,N
1621366235.9,286046998.8,N
1621366255.8,286046998.7,N
1621366275.6,286046998.8,N
1621366295.4,286047000.0,N
1621366315.3,286047002.0,N
1621366335.1,286046999.7,N
1621366355.8,286047001.3,N
1621366375.7,286047002.3,N
1621366395.5,286047000.6,N
1621366415.4,286046998.1,N
1621366435.2,286047000.2,N
1621366455.0,286047001.7,N
1621366455.9,286047001.7,N
1621366475.8,286046998.3,N
1621366495.6,286047000.5,N
1621366515.5,286046999.8,N
1621366535.3,286047001.2,N
1621366555.1,286047001.2,N
1621366575.9,286046999.6,N
1621366595.7,286046995.2,Y
1621366615.6,286046998.9,P
1621366635.4,286046998.8,N
1621366655.2,286046998.7,N
1621366675.1,286047002.8,Y
1621366676.0,286047002.8,P
1621366695.8,286047003.6,N
1621366715.6,286047002.9,N
1621366735.5,286047003.7,N
1621366755.3,286047001.6,N
1621366775.2,286047002.5,N
1621366795.9,286047004.0,N
1621366815.7,286047004.4,N
1621366835.6,286047002.8,N
1621366855.4,286047001.0,N
1621366875.3,286047000.8,N
1621366895.1,286047000.6,N
1621366896.0,286047000.6,N
1621366915.8,286047001.2,N
1621366935.7,286046998.6,N
1621366955.5,286046998.4,N
1621366975.3,286046999.0,N
1621366995.2,286046998.3,N
1621367015.0,286046998.4,N
1621367015.9,286046998.4,N
1621367035.8,286047000.3,N
1621367055.6,286047000.2,N
1621367075.4,286046998.5,N
1621367095.3,286046999.9,N
1621367115.1,286047000.2,N
1621367135.9,286047000.2,N
1621367155.7,286047000.6,N
1621367175.5,286047000.2,N
1621367195.4,286047002.1,N
1621367215.2,286047002.2,N
1621367235.0,286047002.1,N
1621367235.9,286047002.1,N
1621367255.8,286047001.3,N
1621367275.6,286047002.8,N
1621367295.5,286047000.8,N
1621367315.3,286046999.4,N
1621367335.2,286047001.1,N
1621367355.9,286047002.1,N
1621367375.7,286047002.4,N
1621367395.6,286047002.7,N
1621367415.4,286047000.2,N
1621367435.2,286047001.4,N
1621367455.1,286047004.0,N
1621367456.0,286047004.0,N
1621367475.8,286047001.7,N
1621367495.7,286047003.2,N
1621367515.5,286047003.0,N
1621367535.3,286047002.9,N
1621367555.2,286047003.1,N
1621367575.0,286047003.0,N
1621367575.9,286047003.0,N
1621367595.7,286047005.9,Y
1621367615.6,286047004.3,P
1621367635.4,286047005.4,P
1621367655.3,286047003.0,N
1621367675.1,286047002.8,N
1621367676.0,286047002.8,N
1621367695.8,286046998.3,N
1621367715.7,286046999.1,N
1621367735.5,286047000.7,N
1621367755.3,286047001.9,N
1621367775.2,286047001.7,N
1621367795.0,286046999.8,N
1621367795.9,286046999.8,N
1621367815.8,286046999.1,N
1621367835.6,286046999.9,N
1621367855.4,286047002.5,N
1621367875.3,286047001.4,N
1621367895.1,286046999.8,N
1621367915.8,286046998.1,N
1621367935.7,286046999.4,N
1621367955.5,286046996.9,N
1621367975.4,286046999.5,N
1621367995.2,286046998.0,N
